Hourly Data Report for September 05, 2017

All times are specified in Local Standard Time (LST). Add 1 hour to adjust for Daylight Saving Time where and when it is observed.

OTTAWA INTL A
ONTARIO

45°19'00.000" N
75°40'00.000" W
114.90 m
6106001
71628
YOW

Download Data

Hourly Data (September 2017)
Hourly Data Report for September 5, 2017
Temp Definition
°C
Dew Point Temp Definition
°C
Rel Hum Definition
%
Wind Dir Definition
10's deg

Wind Spd Definition
km/h
Visibility Definition
km
Stn Press Definition
kPa
Hmdx Definition


Wind Chill Definition


Weather Definition


TIME
00:00 Legend Double Dagger 18.4 16.8 90 23 19 16.1 98.60     LegendNANA
01:00 Legend Double Dagger 18.2 16.9 92 28 23 12.9 98.66     Rain
02:00 Legend Double Dagger 17.1 15.9 92 28 22 16.1 98.75     LegendNANA
03:00 Legend Double Dagger 16.0 14.3 90 28 20 16.1 98.83     LegendNANA
04:00 Legend Double Dagger 15.0 13.8 93 27 12 16.1 98.90     Mostly Cloudy
05:00 Legend Double Dagger 13.8 12.9 95 24 9 16.1 99.00     LegendNANA
06:00 Legend Double Dagger 13.4 12.7 96 25 10 24.1 99.05     LegendNANA
07:00 Legend Double Dagger 14.0 12.9 93 24 11 24.1 99.13     Mostly Cloudy
08:00 Legend Double Dagger 15.0 13.5 90 26 13 24.1 99.20     LegendNANA
09:00 Legend Double Dagger 15.4 12.7 83 27 16 24.1 99.23     LegendNANA
10:00 Legend Double Dagger 16.0 12.7 81 30 16 24.1 99.24     Mostly Cloudy
11:00 Legend Double Dagger 16.9 13.1 78 24 6 24.1 99.27     LegendNANA
12:00 Legend Double Dagger 18.1 13.3 73 29 10 24.1 99.27     LegendNANA
13:00 Legend Double Dagger 19.3 13.2 67 23 8 24.1 99.26     Mostly Cloudy
14:00 Legend Double Dagger 19.0 12.5 65 28 5 24.1 99.27     LegendNANA
15:00 Legend Double Dagger 19.6 13.0 65 36 3 24.1 99.26     LegendNANA
16:00 Legend Double Dagger 19.8 12.5 62 36 2 24.1 99.27     Mostly Cloudy
17:00 Legend Double Dagger 19.5 13.0 66 7 5 24.1 99.28     LegendNANA
18:00 Legend Double Dagger 19.0 12.8 67 7 4 24.1 99.29     LegendNANA
19:00 Legend Double Dagger 16.5 12.9 79 16 8 24.1 99.37     Cloudy
20:00 Legend Double Dagger 16.9 13.0 78 19 5 24.1 99.46     Rain Showers
21:00 Legend Double Dagger 16.0 13.7 86 20 7 24.1 99.50     LegendNANA
22:00 Legend Double Dagger 14.2 13.0 92 15 8 24.1 99.54     Mostly Cloudy
23:00 Legend Double Dagger 14.1 13.1 94 20 7 24.1 99.55     LegendNANA

Notes on Data Quality.

Legend

  • E = Estimated
  • M = Missing
  • NA = Not Available
  • ‡ = Partner data that is not subject to review by the National Climate Archives
Date modified: